CAPE
1264 1426 1575 1645 1704 1704 1530 1151 1008 837 884 1010 942 697 744 913 975 958 1024 1082 1124 1122 946 519 639 752 639 602 639 641 485 492 548 542 543 506 434 366 199 96 244 182 130 153 126 112 82 21 11 20 15 11 17 14 18 23 25 28 25 32 34 28 37 40 60 74 60 60 48 109 141 178 149 116 133 127 80 149 146 228 290 377 440 485 529
1209 1257 1378 1549 1623 1653 1539 1227 1117 870 650 722 758 858 701 529 880 988 966 1004 1052 1177 1208 1068 985 740 632 611 619 536 438 458 518 490 509 467 359 318 206 212 444 555 254 201 208 158 50 61 1 22 12 26 16 17 27 26 27 27 26 21 22 24 25 31 29 35 58 67 73 82 86 130 87 83 65 50 32 31 34 53 150 287 362 447 526
1035 1076 1097 1234 1369 1436 1382 1276 1172 1046 779 689 628 592 648 721 505 490 739 842 960 1114 1195 1234 1256 1132 902 668 660 520 401 398 382 398 420 292 178 167 187 155 456 545 435 392 220 100 56 8 3 18 7 17 18 16 14 20 25 20 13 11 18 22 28 27 51 81 66 70 84 60 78 56 61 44 34 35 24 20 16 14 36 134 197 268 339
977 976 940 1086 1128 1181 1241 1236 1180 1124 1009 814 797 750 702 754 756 446 320 343 424 642 934 1121 872 649 578 632 676 478 316 323 301 327 345 10 0 165 163 149 445 806 550 397 276 176 81 34 1 31 8 9 8 6 15 17 12 14 13 6 9 24 20 14 44 46 39 58 56 42 44 33 28 24 21 16 16 18 13 14 16 24 69 109 142
912 849 968 988 997 1084 1149 1162 1173 1161 1153 1093 802 822 816 804 856 813 445 422 484 419 307 356 351 459 536 522 636 510 272 273 257 267 192 167 185 166 149 153 469 666 404 272 364 245 50 50 9 13 14 14 6 8 14 16 12 16 14 13 12 12 15 15 20 31 38 40 31 28 36 20 10 8 7 12 15 16 15 12 15 16 25 42 58
1089 1082 1086 1027 1030 1059 1050 1101 1160 1193 1182 1149 1000 738 847 800 807 853 974 644 465 450 430 370 305 386 382 403 560 522 262 224 240 222 8 0 132 250 163 144 289 70 151 259 420 144 229 98 26 21 10 12 8 13 9 10 8 5 7 10 12 13 18 18 28 25 32 30 29 25 28 23 17 13 8 9 12 12 12 7 9 13 18 19 20
1200 1218 1176 1156 1146 1124 1102 1151 1122 1124 1189 1167 1213 1049 664 579 720 750 806 755 500 464 485 499 456 402 327 320 422 497 326 172 180 172 193 214 225 219 69 157 6 2 20 34 700 323 271 87 5 26 13 9 3 6 12 13 11 12 9 11 8 11 14 17 15 13 27 21 21 21 17 17 18 10 9 9 11 8 8 7 9 10 18 26 24
1054 994 960 961 975 1019 1089 1133 1181 1192 1169 1115 961 1048 1012 856 685 598 616 684 530 433 456 521 557 552 502 471 457 458 390 217 159 201 208 233 246 221 61 131 42 0 89 0 132 169 263 101 29 96 6 5 7 12 20 16 18 14 8 8 9 6 8 15 17 20 23 13 13 14 21 20 14 10 11 11 10 7 6 7 7 8 15 23 22
920 756 630 710 802 818 809 847 916 1065 1208 1226 976 1111 1041 984 843 678 508 494 430 447 458 460 506 476 458 424 422 428 394 252 153 171 191 218 249 252 31 5 109 294 41 0 0 0 221 227 43 11 14 7 13 18 5 15 16 12 14 16 13 6 6 9 16 14 11 14 20 20 14 15 10 10 10 12 9 4 8 21 28 28 27 24 24
684 730 734 686 627 687 775 812 827 896 979 1065 1112 1024 1005 978 919 833 696 362 537 513 339 284 435 379 410 423 406 397 377 283 113 165 213 244 294 269 0 0 95 75 23 17 0 0 31 111 59 51 36 17 17 18 14 16 16 10 14 14 17 9 5 9 14 13 16 23 18 14 11 11 11 12 12 14 16 22 22 22 26 26 29 25 19
712 740 704 584 538 611 646 651 692 746 791 856 961 1006 984 886 886 846 792 680 529 500 396 308 333 350 302 180 312 311 296 264 198 156 248 289 343 244 144 139 119 100 69 31 0 0 0 0 3 1 10 30 62 14 8 5 14 12 4 10 3 9 3 12 15 13 15 15 10 12 11 10 11 16 22 24 30 30 28 24 28 29 32 30 22
701 657 608 569 566 592 656 758 841 848 816 805 792 1000 1063 940 782 830 787 737 661 569 539 390 284 263 207 160 176 229 210 190 197 252 253 266 305 245 210 181 127 122 79 37 0 0 0 0 0 0 0 20 122 18 23 11 27 12 4 13 11 12 19 15 18 17 15 11 6 8 10 13 19 22 24 26 26 30 35 40 54 28 30 30 27
799 756 635 752 799 843 886 910 902 856 767 729 798 836 882 889 844 936 919 837 779 658 590 490 415 315 166 154 212 182 186 168 194 229 223 243 282 277 245 221 145 135 86 40 10 0 0 0 0 0 0 0 20 24 18 14 16 11 10 15 18 21 13 14 17 20 16 14 9 10 13 17 23 26 29 28 31 31 27 58 44 50 35 36 62
997 918 807 772 820 818 843 867 836 800 781 794 799 886 933 916 846 726 691 753 821 676 594 585 528 458 242 96 124 140 170 160 169 218 263 291 305 255 270 246 176 152 102 56 19 0 0 0 0 0 0 0 1 5 3 8 14 18 15 20 14 14 16 19 18 15 14 10 7 9 9 12 17 17 23 21 24 20 52 33 21 19 18 20 10
1122 1066 1002 953 896 832 826 827 793 784 776 811 839 842 961 1062 880 738 633 562 478 606 600 547 509 393 237 207 143 58 43 71 114 187 259 304 244 205 230 232 194 159 122 64 32 1 0 0 0 0 0 0 0 0 0 0 0 27 20 22 12 14 17 18 24 18 13 6 8 9 18 21 15 12 14 28 27 28 36 32 31 27 20 23 16
1168 1110 1102 1069 982 905 914 882 819 716 709 761 799 832 926 1000 1045 822 641 579 494 460 416 486 478 485 312 267 240 98 56 33 58 128 209 272 252 190 168 189 177 195 90 96 73 39 0 0 0 0 0 0 0 0 0 0 2 22 26 31 26 23 21 22 22 21 5 5 16 18 26 22 16 22 23 29 25 20 15 22 18 24 18 21 16
1212 1129 991 935 820 742 731 769 817 795 751 758 719 811 878 877 906 932 801 628 659 568 547 459 367 478 472 243 132 128 129 77 66 93 109 152 180 154 101 156 190 169 66 106 102 59 0 0 0 0 0 0 0 0 0 0 0 15 34 35 34 27 22 22 30 34 1 5 20 28 29 23 21 20 28 24 32 23 18 21 26 37 17 14 18
1337 1228 1073 971 916 860 819 773 725 690 639 635 728 794 819 802 833 845 870 778 654 526 641 536 582 517 387 318 60 41 76 78 110 126 100 92 110 96 103 151 174 163 67 128 133 69 2 0 0 0 0 0 0 0 0 0 0 0 11 19 15 17 16 23 42 15 64 37 47 39 25 26 27 25 31 34 34 36 23 21 16 21 13 15 18
1233 1174 1055 895 797 821 868 851 833 850 776 684 683 800 859 822 777 812 843 844 849 724 403 613 706 632 464 371 154 112 105 66 106 108 94 75 89 141 127 109 156 158 109 153 144 70 36 0 0 0 0 0 0 0 0 0 2 0 4 7 10 5 1 15 24 79 44 88 69 70 94 73 45 40 43 56 51 41 22 28 14 24 6 4 4
1017 1027 872 616 521 671 822 960 982 984 960 918 850 770 810 916 946 920 896 908 854 808 609 725 702 591 522 433 299 207 237 131 104 69 56 81 69 93 116 104 64 133 204 156 110 82 67 0 0 0 0 0 0 0 0 0 0 0 0 1 5 1 0 3 7 4 54 241 196 165 48 137 72 57 77 64 52 35 34 35 23 3 2 0 0
977 913 875 765 592 585 645 708 794 890 915 878 806 748 741 738 820 946 987 875 802 853 709 802 708 683 565 479 400 334 186 123 128 116 53 50 70 68 88 106 110 42 148 98 91 93 83 0 0 0 0 0 0 0 0 0 0 0 0 0 1 0 0 0 7 4 9 9 36 187 120 130 121 103 63 66 43 39 42 24 17 8 1 0 0
983 952 894 853 820 747 720 772 764 712 663 616 521 446 468 545 612 736 842 911 921 839 778 660 679 739 670 503 346 202 139 61 36 120 136 69 97 75 97 102 102 80 82 86 88 81 75 18 0 0 0 0 0 0 0 0 0 0 0 0 0 0 0 0 1 4 2 0 125 249 158 74 142 125 94 40 14 46 27 6 3 5 1 1 1
826 800 749 754 759 770 720 783 758 754 744 734 702 629 562 537 570 650 697 708 770 796 705 622 602 606 645 676 566 357 98 106 54 76 142 110 82 70 71 99 126 86 47 102 78 80 94 89 11 0 0 0 0 0 0 7 1 0 0 0 0 0 0 0 0 5 1 11 59 60 27 135 143 54 64 9 0 1 1 2 4 4 3 8 10
864 885 817 791 703 765 761 712 640 568 562 542 555 556 556 584 608 624 661 661 678 767 845 720 659 637 618 610 513 495 229 216 191 175 139 127 107 112 80 91 93 49 64 65 86 99 110 108 0 5 0 0 5 0 0 0 13 0 0 0 0 0 0 0 0 3 0 11 37 79 55 266 111 148 115 37 1 0 0 1 2 5 8 10 11
906 936 901 871 834 776 679 562 260 0 0 196 218 222 233 312 370 423 469 551 521 472 495 297 306 352 408 302 222 169 171 246 187 192 200 173 112 128 79 63 63 67 54 58 80 89 95 114 114 104 78 55 39 0 0 4 78 0 0 2 0 0 0 0 0 0 2 11 20 99 25 9 68 3 52 88 46 12 0 1 4 6 8 10 6
904 940 938 893 796 676 546 266 139 221 169 141 123 117 127 202 282 283 297 352 490 519 408 300 190 288 269 327 279 258 181 230 230 227 204 145 112 81 92 75 68 72 72 78 102 104 25 0 127 119 96 105 94 85 93 134 135 75 0 5 9 0 0 0 0 0 0 0 7 11 35 43 75 50 65 64 58 3 0 0 0 0 1 7 8
632 676 705 658 573 460 0 0 55 116 107 72 57 80 94 93 167 221 250 253 406 496 409 338 358 322 198 221 326 64 147 243 244 223 209 238 112 82 67 53 53 67 64 81 118 40 36 117 133 14 134 102 103 122 139 180 170 147 166 24 56 0 0 0 0 0 0 0 0 0 0 0 1 52 36 44 0 0 0 0 0 0 0 4 8
398 174 167 129 0 0 0 0 34 83 72 82 98 98 90 62 72 154 195 198 323 425 406 373 254 74 200 263 207 222 209 245 254 256 274 242 214 148 119 111 36 40 67 54 67 96 108 132 68 19 125 158 149 167 179 202 203 213 222 180 155 67 0 0 0 0 0 0 0 0 0 0 0 22 51 35 8 0 0 0 0 0 1 1 18
0 0 0 0 0 0 0 0 98 72 59 66 86 78 67 68 86 134 152 200 241 320 368 341 206 74 385 349 328 296 223 230 220 198 208 243 250 158 102 140 82 36 45 49 44 65 103 94 101 54 14 151 179 162 140 144 205 235 227 190 184 11 0 0 0 0 0 0 0 0 0 0 0 0 55 48 20 2 0 0 0 0 0 15 13
0 0 0 0 0 0 56 0 18 2 27 72 63 60 46 76 139 176 178 336 352 355 351 194 112 238 234 74 219 409 324 296 302 246 170 179 222 123 109 147 94 31 11 18 48 63 67 84 73 78 31 131 118 191 163 188 227 210 219 188 153 0 0 0 0 0 0 0 15 50 23 50 54 68 51 58 17 21 0 0 0 0 7 16 13
0 0 0 43 42 104 78 59 57 58 65 75 91 80 44 80 126 181 195 267 329 274 167 160 199 279 204 252 393 297 330 348 323 295 240 159 280 230 209 166 101 28 88 29 29 26 46 55 84 60 82 137 182 216 227 230 180 184 209 227 196 47 0 0 0 0 0 0 2 52 83 36 53 63 73 59 41 4 0 0 0 0 6 14 1
74 96 106 102 96 71 57 70 128 166 152 190 252 209 111 77 120 286 266 265 315 337 298 271 337 332 266 206 344 343 269 301 293 359 323 231 217 331 388 384 184 63 78 56 18 0 12 54 64 109 132 102 168 189 19 88 118 144 207 221 242 228 148 85 0 0 0 0 31 51 96 61 87 81 70 45 30 8 0 0 0 0 4 0 0
4 21 53 34 33 52 62 92 152 132 115 153 257 297 203 139 120 144 182 306 306 321 328 293 292 324 339 317 277 320 300 272 304 346 318 199 143 196 305 280 221 138 95 96 107 38 0 14 0 78 145 143 153 145 73 48 22 74 143 173 164 228 192 141 30 0 0 33 51 68 96 89 46 77 60 53 30 4 0 0 0 0 0 0 0
4 2 3 6 14 41 52 41 47 26 72 157 294 374 335 209 164 170 180 242 260 268 297 279 265 237 269 224 28 201 327 243 272 335 329 209 115 130 205 222 236 200 176 154 184 165 111 47 81 14 134 140 156 1 73 0 0 30 71 121 170 176 185 183 44 4 0 42 55 81 95 105 107 96 77 60 26 0 0 0 0 0 0 0 0
4 4 9 9 8 8 14 22 7 1 102 182 214 283 335 327 244 185 189 243 278 261 261 275 269 240 199 187 190 250 331 242 280 270 347 344 268 238 184 184 254 335 304 246 243 233 159 71 29 66 0 80 50 0 11 82 58 0 6 30 109 154 170 180 36 20 31 50 62 67 89 94 145 144 89 56 0 0 0 0 0 0 0 0 0
5 5 4 4 3 2 2 1 1 0 130 178 188 215 278 300 296 245 207 223 252 247 191 113 25 209 186 98 97 164 308 339 299 284 322 391 439 389 335 318 418 417 303 240 241 258 244 109 77 128 151 12 0 0 0 99 143 98 10 0 57 120 106 62 41 34 44 64 59 82 90 112 153 139 69 14 0 0 0 0 0 0 0 0 0
6 5 4 4 3 3 3 2 63 114 116 139 165 160 173 191 176 166 210 241 243 145 50 6 126 248 287 268 193 196 247 288 274 282 352 410 482 514 488 429 437 376 272 224 239 236 252 164 110 114 116 61 0 0 0 100 141 62 0 3 38 55 70 49 42 40 46 42 55 80 105 150 155 100 46 0 0 0 0 0 0 0 0 0 0
5 5 4 3 3 1 1 1 1 16 100 120 111 63 49 73 62 59 283 174 114 78 30 227 227 248 270 358 372 352 216 201 278 338 363 395 419 396 302 247 246 240 226 232 258 240 189 176 159 76 91 129 77 60 0 129 115 11 0 6 27 17 12 3 2 1 23 47 69 99 141 116 80 15 0 0 0 0 0 0 0 0 0 0 0
4 4 1 1 1 1 1 1 0 0 60 114 129 53 26 24 2 31 0 0 14 0 172 191 209 208 186 196 299 360 311 279 306 323 362 353 341 419 398 290 210 235 294 304 279 220 176 178 162 121 98 89 0 43 6 105 79 19 0 0 1 0 2 5 8 27 49 65 98 98 58 6 0 2 0 0 0 0 0 0 0 0 0 0 0
1 0 0 0 0 0 0 0 2 19 124 255 83 112 91 123 0 1 36 55 73 209 272 210 168 128 193 266 365 400 353 458 478 446 323 274 271 309 335 305 259 279 302 311 314 259 158 102 122 174 140 103 3 18 38 50 39 6 0 0 0 0 1 11 24 47 61 54 36 7 0 2 3 0 0 0 0 0 0 0 0 0 0 0 0
1 0 0 0 0 0 0 0 2 13 94 200 255 59 338 76 98 45 26 59 0 192 268 255 227 191 203 224 271 271 346 442 501 457 386 305 242 228 236 285 355 307 331 274 232 221 164 188 162 129 122 101 38 8 11 5 0 0 0 0 0 0 0 4 6 29 22 10 9 2 1 3 0 0 0 0 0 0 0 0 0 0 0 0 0
1 1 0 0 0 0 0 1 42 45 156 0 1 168 317 10 1 0 1 1 1 1 141 104 160 176 211 203 246 232 222 283 413 446 387 346 297 316 355 341 279 331 354 372 287 208 184 182 172 156 103 94 55 3 14 0 0 0 0 0 0 0 0 0 5 5 4 2 4 1 4 1 0 0 0 0 0 0 0 0 0 0 0 0 0
2 2 0 0 0 1 1 31 100 164 200 199 161 136 132 1 4 0 1 1 53 194 120 91 116 183 196 155 168 185 240 279 230 217 249 270 239 191 246 294 287 333 347 334 346 279 214 172 174 154 139 81 71 53 7 0 0 0 0 0 0 0 0 0 0 0 3 1 2 3 2 1 0 0 0 0 0 0 1 1 0 0 0 0 0
0 1 3 1 0 1 14 94 183 188 146 114 76 63 29 0 0 1 0 0 109 168 108 162 146 122 144 148 161 211 222 246 233 215 196 196 192 176 207 249 236 223 231 246 285 273 235 214 172 158 135 107 94 23 0 8 10 0 0 0 0 0 0 0 0 0 0 0 1 0 0 0 0 0 0 0 0 0 1 4 2 0 0 0 0
0 0 2 2 0 2 59 131 106 41 1 3 1 0 0 0 0 0 0 0 1 35 34 63 76 101 92 53 54 100 139 154 175 171 199 278 268 228 185 188 163 180 218 213 212 182 208 188 183 195 156 124 34 36 10 0 6 1 0 0 0 0 0 0 0 0 0 0 0 0 0 0 0 1 0 0 1 2 4 4 2 0 0 0 0
0 0 0 1 0 2 4 23 45 40 8 8 2 11 18 10 0 0 0 0 0 0 11 24 34 38 46 89 80 82 138 201 182 204 165 179 244 256 213 164 146 180 180 151 145 139 133 148 176 211 131 23 13 26 49 4 5 7 0 0 0 0 0 0 0 0 0 0 0 0 0 0 0 0 1 0 0 0 1 0 0 0 0 0 0
0 0 0 0 0 0 1 18 33 25 0 0 9 12 15 3 0 0 0 0 0 0 0 7 16 19 49 86 77 86 111 157 200 250 206 166 209 235 205 153 145 183 148 130 118 133 126 133 157 184 159 132 100 71 46 11 0 10 0 3 4 0 0 0 0 0 0 0 0 0 0 0 0 0 0 0 0 0 0 0 0 0 0 0 0
0 0 0 0 0 0 0 2 8 6 2 0 11 21 17 0 0 0 0 0 0 0 0 1 4 8 5 12 16 37 59 85 104 145 170 153 148 147 158 141 158 126 123 121 112 108 105 110 108 115 125 136 132 86 25 18 17 13 12 11 6 0 0 0 0 0 0 0 0 0 0 0 0 0 0 0 0 0 1 0 0 1 0 0 1
0 0 0 0 1 0 0 0 0 0 2 4 2 2 5 0 0 0 0 0 0 0 0 1 0 0 0 0 8 11 15 38 58 47 52 59 66 98 103 124 124 98 66 63 84 96 78 57 28 59 74 76 68 11 20 30 0 0 9 7 0 0 0 0 0 0 0 0 0 0 0 0 0 0 0 0 0 2 3 3 3 1 2 4 2
0 0 1 4 3 1 0 4 5 7 6 3 2 11 10 0 0 0 0 0 0 0 0 0 1 0 0 0 0 0 1 8 30 25 14 11 30 29 38 65 74 72 48 31 37 60 64 43 20 16 38 52 39 26 32 15 11 10 2 1 0 0 0 0 0 0 0 0 0 0 0 0 0 0 0 0 0 2 1 0 0 2 0 0 1
0 0 0 0 0 0 0 1 1 0 0 0 0 0 0 0 0 0 0 0 0 0 0 0 0 0 0 0 0 0 2 14 23 16 8 3 2 11 31 46 44 54 33 19 13 4 4 12 8 10 0 10 25 26 14 4 5 4 4 0 0 0 1 0 0 0 0 0 0 0 0 0 0 0 0 0 0 0 0 2 3 4 3 2 3
Wind_Speed
11 10 9 11 12 13 14 13 12 12 12 12 12 11 10 9 9 10 11 11 13 14 17 15 11 9 11 14 15 16 15 14 12 11 10 10 10 11 15 nan 14 11 16 18 16 17 nan nan nan nan nan nan nan nan nan nan nan nan nan nan nan nan nan nan nan nan nan nan nan 12 14 15 15 15 15 15 nan 15 15 15 16 16 16 18 19
11 11 12 11 12 14 14 14 13 12 13 12 12 12 11 10 9 9 10 11 12 14 19 15 14 11 12 15 16 17 17 16 13 11 10 10 9 8 12 14 13 13 15 16 17 16 nan nan nan nan nan nan nan nan nan nan nan nan nan nan nan nan nan nan nan nan nan nan nan nan nan 15 nan nan nan nan nan nan nan nan 14 14 15 17 17
12 12 12 11 11 13 14 15 14 14 14 13 13 13 13 12 11 10 10 10 11 14 18 18 16 14 13 16 18 20 19 16 13 11 10 9 9 10 8 12 11 14 15 14 14 nan nan nan nan nan nan nan nan nan nan nan nan nan nan nan nan nan nan nan nan nan nan nan nan nan nan nan nan nan nan nan nan nan nan nan nan 14 14 15 17
12 13 12 11 11 12 13 15 16 16 17 16 15 15 15 14 13 12 11 12 12 15 17 19 18 15 14 16 19 20 20 18 15 14 12 nan nan 12 11 10 12 13 14 12 9 15 nan nan nan nan nan nan nan nan nan nan nan nan nan nan nan nan nan nan nan nan nan nan nan nan nan nan nan nan nan nan nan nan nan nan nan nan nan 15 16
13 13 11 12 12 13 15 17 18 19 20 20 17 17 17 17 15 14 12 12 13 16 18 19 19 16 14 16 19 20 20 19 18 16 14 9 9 11 12 11 12 17 16 12 8 13 nan nan nan nan nan nan nan nan nan nan nan nan nan nan nan nan nan nan nan nan nan nan nan nan nan nan nan nan nan nan nan nan nan nan nan nan nan nan nan
14 12 12 12 12 14 17 19 21 21 23 23 20 16 13 17 19 19 15 15 14 17 18 18 16 15 14 16 18 18 19 19 19 18 nan nan 13 13 13 13 12 nan 13 13 9 9 10 nan nan nan nan nan nan nan nan nan nan nan nan nan nan nan nan nan nan nan nan nan nan nan nan nan nan nan nan nan nan nan nan nan nan nan nan nan nan
15 14 12 13 13 15 17 19 21 22 24 27 26 21 17 18 21 22 20 17 16 19 17 17 17 14 14 15 16 19 19 19 21 21 18 16 15 15 nan 15 nan nan nan nan 10 10 11 nan nan nan nan nan nan nan nan nan nan nan nan nan nan nan nan nan nan nan nan nan nan nan nan nan nan nan nan nan nan nan nan nan nan nan nan nan nan
17 16 15 15 16 16 18 19 21 21 22 25 27 24 20 18 21 22 23 21 20 21 19 18 16 15 16 14 15 18 19 20 21 21 20 18 15 18 nan 15 nan nan nan nan 11 11 13 13 nan nan nan nan nan nan nan nan nan nan nan nan nan nan nan nan nan nan nan nan nan nan nan nan nan nan nan nan nan nan nan nan nan nan nan nan nan
19 18 17 17 18 19 19 20 20 20 20 23 27 27 23 21 20 22 24 24 22 23 22 21 18 17 18 17 16 18 20 21 20 22 23 18 15 18 nan nan 12 12 nan nan nan nan 14 14 nan nan nan nan nan nan nan nan nan nan nan nan nan nan nan nan nan nan nan nan nan nan nan nan nan nan nan nan nan nan nan nan nan nan nan nan nan
19 19 19 19 19 19 19 20 21 22 22 24 26 28 27 24 21 21 21 23 25 27 26 22 19 18 18 19 18 18 20 24 23 21 21 19 16 17 nan nan nan nan nan nan nan nan nan 15 nan nan nan nan nan nan nan nan nan nan nan nan nan nan nan nan nan nan nan nan nan nan nan nan nan nan nan nan nan nan nan nan nan nan nan nan nan
19 20 21 20 19 19 20 22 23 24 24 25 25 26 28 27 24 22 23 22 21 25 27 28 27 22 18 19 19 20 23 26 25 22 19 20 19 18 20 19 17 13 nan nan nan nan nan nan nan nan nan nan nan nan nan nan nan nan nan nan nan nan nan nan nan nan nan nan nan nan nan nan nan nan nan nan nan nan nan nan nan nan nan nan nan
20 21 21 21 22 22 22 22 22 23 24 24 24 24 25 26 26 26 27 23 21 23 26 29 29 27 22 20 20 24 25 26 26 23 22 22 21 22 21 21 19 15 nan nan nan nan nan nan nan nan nan nan 8 nan nan nan nan nan nan nan nan nan nan nan nan nan nan nan nan nan nan nan nan nan nan nan nan nan nan nan nan nan nan nan nan
20 21 22 22 23 21 21 21 22 23 24 24 24 24 25 25 26 26 27 26 22 23 24 29 31 28 25 22 20 24 24 25 26 26 24 25 24 22 22 23 21 18 nan nan nan nan nan nan nan nan nan nan nan nan nan nan nan nan nan nan nan nan nan nan nan nan nan nan nan nan nan nan nan nan nan nan nan nan nan nan nan nan nan nan nan
22 23 23 23 21 22 24 24 24 25 25 25 25 26 26 24 24 26 24 25 22 23 24 30 26 27 28 nan 23 23 25 25 25 27 29 27 24 22 22 22 21 18 16 nan nan nan nan nan nan nan nan nan nan nan nan nan nan nan nan nan nan nan nan nan nan nan nan nan nan nan nan nan nan nan nan nan nan nan nan nan nan nan nan nan nan
23 23 23 22 24 26 27 28 27 27 26 25 25 26 27 25 25 25 24 22 22 24 25 24 27 27 28 31 25 nan nan nan 25 26 29 29 27 23 22 20 18 17 18 nan nan nan nan nan nan nan nan nan nan nan nan nan nan nan nan nan nan nan nan nan nan nan nan nan nan nan nan nan nan nan nan nan nan nan nan nan nan nan nan nan nan
24 23 23 24 25 26 27 29 29 29 28 26 26 26 28 28 27 25 26 24 23 22 23 21 25 31 27 27 28 nan nan nan nan 26 29 29 27 24 23 19 16 18 nan nan nan nan nan nan nan nan nan nan nan nan nan nan nan nan nan nan nan nan nan nan nan nan nan nan nan nan nan nan nan nan nan nan nan nan nan nan nan nan nan nan nan
23 23 23 24 25 26 28 29 29 29 28 26 26 27 28 28 27 26 27 24 22 21 22 22 20 22 29 30 29 25 23 nan nan nan 28 26 25 24 22 20 19 19 nan 17 19 nan nan nan nan nan nan nan nan nan nan nan nan nan nan nan nan nan nan nan nan nan nan nan nan nan nan nan nan nan nan nan nan nan nan nan nan nan nan nan nan
21 22 24 25 26 29 29 28 28 27 27 25 26 28 29 29 29 26 23 25 22 20 21 23 20 20 21 25 nan nan nan nan 30 28 30 nan 27 nan 22 21 20 20 nan 19 19 nan nan nan nan nan nan nan nan nan nan nan nan nan nan nan nan nan nan nan nan nan nan nan nan nan nan nan nan nan nan nan nan nan nan nan nan nan nan nan nan
18 22 25 26 28 31 32 31 30 28 25 23 24 26 28 29 29 28 25 24 27 21 19 22 22 21 20 20 25 26 26 nan 24 33 nan nan nan 26 24 22 20 20 20 19 18 nan nan nan nan nan nan nan nan nan nan nan nan nan nan nan nan nan nan nan nan nan nan nan nan nan nan nan nan nan nan nan nan nan nan nan nan nan nan nan nan
19 20 23 25 28 31 33 33 32 31 30 30 28 28 28 29 29 28 26 25 26 25 20 23 23 22 21 20 21 22 25 24 26 nan nan nan nan nan 25 21 nan 21 21 20 18 nan nan nan nan nan nan nan nan nan nan nan nan nan nan nan nan nan nan nan nan nan nan 17 20 21 nan 23 nan nan nan nan nan nan nan nan nan nan nan nan nan
23 21 22 24 27 28 30 30 31 31 33 33 34 33 31 29 28 29 27 25 25 25 23 23 23 20 24 20 22 24 22 23 26 27 nan nan nan nan nan 25 24 nan 23 nan nan nan nan nan nan nan nan nan nan nan nan nan nan nan nan nan nan nan nan nan nan nan nan nan nan 20 22 23 23 23 nan nan nan nan nan nan nan nan nan nan nan
21 24 23 23 25 27 27 28 29 31 33 34 35 36 35 33 30 28 26 23 25 24 24 22 21 19 21 23 23 24 21 nan nan 25 25 nan nan nan nan 24 23 nan nan nan nan nan nan nan nan nan nan nan nan nan nan nan nan nan nan nan nan nan nan nan nan nan nan nan 15 18 23 nan 24 25 nan nan nan nan nan nan nan nan nan nan nan
21 22 23 24 25 28 28 28 28 29 30 33 35 36 36 34 31 28 26 23 23 23 22 20 20 20 21 23 21 23 nan 21 nan nan 25 27 nan nan nan nan 22 nan nan 20 nan nan nan nan nan nan nan nan nan nan nan nan nan nan nan nan nan nan nan nan nan nan nan nan nan nan nan 23 25 nan nan nan nan nan nan nan nan nan nan nan nan
21 22 23 25 28 28 28 27 27 28 29 32 33 34 35 34 31 29 27 25 23 22 22 21 19 20 21 23 23 23 23 25 26 27 26 25 26 28 nan nan nan nan nan nan nan nan 18 17 nan nan nan nan nan nan nan nan nan nan nan nan nan nan nan nan nan nan nan nan nan nan nan 20 23 26 25 nan nan nan nan nan nan nan nan nan nan
22 24 24 26 29 30 30 29 28 nan nan 32 33 32 32 31 30 29 26 23 22 20 19 19 18 18 22 24 24 22 20 24 28 28 28 28 27 28 nan nan nan nan nan nan nan nan nan 18 18 17 nan nan nan nan nan nan nan nan nan nan nan nan nan nan nan nan nan nan nan nan nan nan nan nan nan nan nan nan nan nan nan nan nan nan nan
22 24 26 27 29 30 29 29 30 30 31 32 32 30 28 28 28 27 25 21 22 20 20 19 19 16 20 25 24 20 17 21 22 26 29 28 28 nan nan nan nan nan nan nan 24 23 nan nan 20 19 nan 19 nan nan nan 20 21 nan nan nan nan nan nan nan nan nan nan nan nan nan nan nan nan nan nan nan nan nan nan nan nan nan nan nan nan
24 24 25 27 27 27 nan nan nan 30 31 nan nan nan nan nan 26 23 22 21 20 19 19 19 18 17 20 22 23 nan 19 21 21 24 28 28 27 nan nan nan nan nan nan nan 26 nan nan 24 22 nan 19 20 20 21 21 21 21 22 21 nan nan nan nan nan nan nan nan nan nan nan nan nan nan nan nan nan nan nan nan nan nan nan nan nan nan
22 23 23 26 nan nan nan nan nan nan nan nan nan nan nan nan nan 21 18 19 17 16 16 17 17 nan 16 19 23 24 21 22 22 23 26 29 31 31 28 27 nan nan nan nan nan nan 24 25 nan nan 21 20 23 22 21 22 22 22 23 24 24 nan nan nan nan nan nan nan nan nan nan nan nan nan nan nan nan nan nan nan nan nan nan nan nan
nan nan nan nan nan nan nan nan nan nan nan nan nan nan nan nan nan 17 15 15 15 14 14 14 15 nan 16 18 21 22 22 25 24 24 25 29 32 31 29 27 nan nan nan nan nan nan 23 nan 25 nan nan 22 24 23 22 21 23 24 25 25 24 nan nan nan nan nan nan nan nan nan nan nan nan nan nan nan nan nan nan nan nan nan nan nan nan
nan nan nan nan nan nan nan nan nan nan nan nan nan nan nan nan 17 15 14 13 13 13 12 11 11 14 17 nan 19 18 22 27 24 23 24 26 29 30 29 28 nan nan nan nan nan nan nan nan nan nan nan 23 25 24 22 23 25 25 26 26 25 nan nan nan nan nan nan nan nan nan nan nan nan nan nan nan nan nan nan nan nan nan nan nan nan
nan nan nan nan nan 22 nan nan nan nan nan nan nan nan nan nan 16 13 12 11 10 9 9 9 10 15 16 16 18 15 18 23 24 24 25 26 26 27 27 28 28 nan nan nan nan nan nan nan nan nan nan 25 25 25 25 25 26 26 26 26 24 nan nan nan nan nan nan nan nan nan nan nan nan nan nan nan nan nan nan nan nan nan nan nan nan
nan nan 19 19 nan nan nan nan 24 26 27 27 25 21 20 nan 15 11 9 8 7 6 7 9 11 15 14 16 17 15 16 19 22 25 27 27 27 27 27 29 30 nan nan nan nan nan nan nan nan 31 28 26 25 26 nan nan 27 26 26 26 27 29 26 nan nan nan nan nan nan nan nan nan nan nan nan nan nan nan nan nan nan nan nan nan nan
nan nan nan nan nan nan nan nan 22 23 25 25 23 20 19 18 15 10 7 6 5 6 7 8 10 12 13 14 16 17 17 17 19 23 26 27 26 27 28 29 29 29 nan nan 27 nan nan nan nan nan 27 27 26 26 nan nan nan nan 28 28 29 27 27 27 nan nan nan nan nan nan nan nan nan nan nan nan nan nan nan nan nan nan nan nan nan
nan nan nan nan nan nan nan nan nan nan nan 23 22 20 18 17 13 9 7 6 6 6 8 8 10 12 15 12 nan 18 19 17 19 20 23 26 26 27 28 29 30 31 30 31 29 29 28 nan nan nan 31 27 28 nan nan nan nan nan nan 29 27 27 27 28 nan nan nan nan nan nan nan 27 27 nan nan nan nan nan nan nan nan nan nan nan nan
nan nan nan nan nan nan nan nan nan nan 20 21 21 18 17 16 12 7 6 7 8 8 11 13 10 13 14 14 16 18 20 20 21 21 24 26 26 27 28 31 31 31 30 28 28 26 28 nan nan nan nan nan nan nan nan nan nan nan nan nan 28 28 29 30 nan nan nan nan nan nan nan nan 28 30 nan nan nan nan nan nan nan nan nan nan nan
nan nan nan nan nan nan nan nan nan nan 17 19 19 18 15 13 10 8 9 11 12 12 12 15 nan 14 13 nan nan 18 21 20 21 22 23 25 26 28 29 29 31 31 29 29 28 30 30 32 nan 31 28 nan nan nan nan nan 31 nan nan nan nan 31 32 nan nan nan nan nan nan nan nan 29 30 32 nan nan nan nan nan nan nan nan nan nan nan
nan nan nan nan nan nan nan nan nan 13 12 14 17 17 15 14 13 13 14 15 15 15 nan nan 15 15 14 15 18 19 22 22 22 22 22 22 23 25 24 27 30 30 30 30 28 28 30 30 32 31 30 nan nan nan nan nan 32 nan nan nan nan nan nan nan nan nan nan nan nan nan 30 31 32 nan nan nan nan nan nan nan nan nan nan nan nan
nan nan nan nan nan nan nan nan nan nan nan 13 14 nan nan nan nan nan 19 19 18 nan nan 16 16 16 16 16 17 16 18 20 19 21 21 20 22 23 24 26 26 28 28 28 28 28 29 30 30 nan nan 31 nan nan nan 32 32 nan nan nan nan nan nan nan nan nan nan nan nan nan 31 31 nan nan nan nan nan nan nan nan nan nan nan nan nan
nan nan nan nan nan nan nan nan nan nan nan 13 14 nan nan nan nan nan nan nan nan nan 18 18 18 18 18 16 16 16 17 19 20 20 20 20 21 22 24 25 27 29 29 28 29 29 30 31 30 32 nan nan nan nan nan 31 nan nan nan nan nan nan nan nan nan nan nan nan nan nan nan nan nan nan nan nan nan nan nan nan nan nan nan nan nan
nan nan nan nan nan nan nan nan nan nan 14 14 nan 14 nan 15 nan nan nan nan nan 20 21 22 21 20 18 18 19 18 18 19 18 21 23 22 23 23 24 26 28 30 29 28 29 29 30 30 31 33 33 34 nan nan nan nan nan nan nan nan nan nan nan nan nan nan nan nan nan nan nan nan nan nan nan nan nan nan nan nan nan nan nan nan nan
nan nan nan nan nan nan nan nan nan nan nan 13 15 nan 16 nan nan nan nan nan nan 20 19 20 21 20 18 17 19 17 16 15 15 20 22 24 24 24 26 28 30 28 28 28 29 30 30 32 34 36 36 34 nan nan nan nan nan nan nan nan nan nan nan nan nan nan nan nan nan nan nan nan nan nan nan nan nan nan nan nan nan nan nan nan nan
nan nan nan nan nan nan nan nan nan nan 14 nan nan 12 17 nan nan nan nan nan nan nan 22 22 22 23 22 18 17 13 13 13 16 21 22 23 24 26 28 28 28 29 29 30 30 29 30 32 33 34 33 nan nan nan nan nan nan nan nan nan nan nan nan nan nan nan nan nan nan nan nan nan nan nan nan nan nan nan nan nan nan nan nan nan nan
nan nan nan nan nan nan nan nan nan 15 15 14 12 18 18 nan nan nan nan nan nan 22 24 nan 26 24 22 22 20 17 15 16 21 24 23 21 22 29 32 28 27 29 30 30 29 29 29 28 31 32 30 nan nan nan nan nan nan nan nan nan nan nan nan nan nan nan nan nan nan nan nan nan nan nan nan nan nan nan nan nan nan nan nan nan nan
nan nan nan nan nan nan nan nan 18 16 17 16 nan nan nan nan nan nan nan nan 19 21 23 25 26 26 25 24 24 22 21 20 23 25 25 20 21 26 30 34 37 36 32 29 29 29 28 27 28 27 28 27 nan nan nan nan nan nan nan nan nan nan nan nan nan nan nan nan nan nan nan nan nan nan nan nan nan nan nan nan nan nan nan nan nan
nan nan nan nan nan nan nan 21 20 nan nan nan nan nan nan nan nan nan nan nan nan nan nan nan nan 24 nan nan nan 25 23 27 25 25 26 26 28 34 36 38 41 42 40 37 30 27 27 27 26 26 28 29 nan nan nan nan nan nan nan nan nan nan nan nan nan nan nan nan nan nan nan nan nan nan nan nan nan nan nan nan nan nan nan nan nan
nan nan nan nan nan nan nan nan nan nan nan nan nan nan nan nan nan nan nan nan nan nan nan nan nan nan nan nan nan nan 24 24 22 24 26 28 31 33 34 34 34 38 39 39 35 28 28 27 28 28 28 nan nan nan nan nan nan nan nan nan nan nan nan nan nan nan nan nan nan nan nan nan nan nan nan nan nan nan nan nan nan nan nan nan nan
nan nan nan nan nan nan nan nan nan nan nan nan nan nan nan nan nan nan nan nan nan nan nan nan nan nan nan nan nan nan 25 23 23 26 27 29 31 32 33 30 32 34 35 35 32 29 29 31 32 31 31 32 31 nan nan nan nan nan nan nan nan nan nan nan nan nan nan nan nan nan nan nan nan nan nan nan nan nan nan nan nan nan nan nan nan
nan nan nan nan nan nan nan nan nan nan nan nan nan nan nan nan nan nan nan nan nan nan nan nan nan nan nan nan nan nan nan nan 28 33 30 28 29 30 32 33 35 36 36 35 39 40 38 36 35 35 35 36 36 nan nan nan nan nan nan nan nan nan nan nan nan nan nan nan nan nan nan nan nan nan nan nan nan nan nan nan nan nan nan nan nan
nan nan nan nan nan nan nan nan nan nan nan nan nan nan nan nan nan nan nan nan nan nan nan nan nan nan nan nan nan nan nan nan nan nan nan nan nan nan 31 34 33 nan nan nan nan nan nan nan nan nan nan nan nan nan nan nan nan nan nan nan nan nan nan nan nan nan nan nan nan nan nan nan nan nan nan nan nan nan nan nan nan nan nan nan nan
nan nan nan nan nan nan nan nan nan nan nan nan nan nan nan nan nan nan nan nan nan nan nan nan nan nan nan nan nan nan nan nan nan nan nan nan nan nan nan nan nan nan nan nan nan nan nan nan nan nan nan nan nan nan nan nan nan nan nan nan nan nan nan nan nan nan nan nan nan nan nan nan nan nan nan nan nan nan nan nan nan nan nan nan nan
nan nan nan nan nan nan nan nan nan nan nan nan nan nan nan nan nan nan nan nan nan nan nan nan nan nan nan nan nan nan nan nan nan nan nan nan nan nan nan nan nan nan nan nan nan nan nan nan nan nan nan nan nan nan nan nan nan nan nan nan nan nan nan nan nan nan nan nan nan nan nan nan nan nan nan nan nan nan nan nan nan nan nan nan nan
Wind_Direction
308 325 327 332 328 330 334 338 336 341 331 330 323 320 322 326 327 322 307 300 296 287 282 285 280 272 259 259 262 261 261 257 245 243 250 257 267 297 312 nan 307 308 305 307 310 307 nan nan nan nan nan nan nan nan nan nan nan nan nan nan nan nan nan nan nan nan nan nan nan 272 271 262 258 256 258 261 nan 268 272 277 278 280 282 283 281
303 307 319 334 330 328 329 332 333 331 324 324 320 316 318 316 321 324 313 302 291 286 281 280 268 256 245 247 254 259 257 258 256 253 247 258 273 280 319 322 320 316 312 315 315 313 nan nan nan nan nan nan nan nan nan nan nan nan nan nan nan nan nan nan nan nan nan nan nan nan nan 264 nan nan nan nan nan nan nan nan 279 280 279 281 281
300 305 312 320 326 328 330 328 329 328 323 321 311 314 312 313 318 325 321 310 298 277 280 278 266 252 244 243 248 255 257 259 260 264 273 289 287 287 299 343 329 325 324 327 321 nan nan nan nan nan nan nan nan nan nan nan nan nan nan nan nan nan nan nan nan nan nan nan nan nan nan nan nan nan nan nan nan nan nan nan nan 283 285 284 283
300 303 308 312 320 329 331 329 332 328 325 324 317 312 310 306 304 308 314 313 305 282 275 280 270 257 250 242 243 251 258 262 259 262 273 nan nan 302 307 322 340 333 333 328 303 318 nan nan nan nan nan nan nan nan nan nan nan nan nan nan nan nan nan nan nan nan nan nan nan nan nan nan nan nan nan nan nan nan nan nan nan nan nan 288 290
296 299 305 311 317 324 329 333 335 333 329 325 313 305 307 308 309 307 309 310 300 281 272 273 274 261 247 241 243 246 254 258 258 270 277 269 273 283 291 316 325 329 325 319 301 317 nan nan nan nan nan nan nan nan nan nan nan nan nan nan nan nan nan nan nan nan nan nan nan nan nan nan nan nan nan nan nan nan nan nan nan nan nan nan nan
296 298 300 308 318 328 335 339 339 339 332 316 294 289 300 315 319 313 314 310 306 293 281 276 270 260 248 242 242 247 251 251 259 275 nan nan 267 265 283 306 323 nan 315 322 315 305 296 nan nan nan nan nan nan nan nan nan nan nan nan nan nan nan nan nan nan nan nan nan nan nan nan nan nan nan nan nan nan nan nan nan nan nan nan nan nan
297 302 305 311 323 332 340 344 342 338 330 321 319 314 327 323 315 314 310 311 304 294 290 282 278 268 252 244 245 246 247 247 255 267 265 261 262 267 nan 293 nan nan nan nan 312 304 295 nan nan nan nan nan nan nan nan nan nan nan nan nan nan nan nan nan nan nan nan nan nan nan nan nan nan nan nan nan nan nan nan nan nan nan nan nan nan
307 308 312 320 330 340 346 344 341 335 328 321 315 323 329 320 314 310 308 303 301 297 294 288 278 268 258 251 244 249 253 251 257 259 255 256 263 274 nan 283 nan nan nan nan 290 284 294 300 nan nan nan nan nan nan nan nan nan nan nan nan nan nan nan nan nan nan nan nan nan nan nan nan nan nan nan nan nan nan nan nan nan nan nan nan nan
311 314 318 327 335 342 344 342 332 328 324 316 317 320 322 320 312 304 301 304 304 298 294 292 284 269 264 261 253 251 253 255 256 254 252 254 259 274 nan nan 281 307 nan nan nan nan 288 294 nan nan nan nan nan nan nan nan nan nan nan nan nan nan nan nan nan nan nan nan nan nan nan nan nan nan nan nan nan nan nan nan nan nan nan nan nan
313 317 323 329 337 342 340 332 326 325 321 317 316 316 316 315 315 309 303 297 298 289 284 280 271 269 266 266 259 253 251 252 254 256 254 251 252 274 nan nan nan nan nan nan nan nan nan 289 nan nan nan nan nan nan nan nan nan nan nan nan nan nan nan nan nan nan nan nan nan nan nan nan nan nan nan nan nan nan nan nan nan nan nan nan nan
317 322 324 329 334 334 333 332 330 331 329 325 322 320 316 315 313 306 296 292 295 292 292 292 288 273 259 250 253 253 249 246 250 257 251 246 256 272 275 271 265 270 nan nan nan nan nan nan nan nan nan nan nan nan nan nan nan nan nan nan nan nan nan nan nan nan nan nan nan nan nan nan nan nan nan nan nan nan nan nan nan nan nan nan nan
317 319 322 328 331 333 336 335 336 336 334 332 331 330 326 317 312 308 300 294 289 290 288 288 283 277 268 259 246 248 254 248 244 244 239 243 258 270 273 268 267 265 nan nan nan nan nan nan nan nan nan nan 286 nan nan nan nan nan nan nan nan nan nan nan nan nan nan nan nan nan nan nan nan nan nan nan nan nan nan nan nan nan nan nan nan
308 311 321 332 334 334 336 335 333 333 331 330 327 329 328 324 315 309 310 306 299 290 289 285 285 280 272 268 254 246 250 250 242 238 237 243 255 266 266 267 267 264 nan nan nan nan nan nan nan nan nan nan nan nan nan nan nan nan nan nan nan nan nan nan nan nan nan nan nan nan nan nan nan nan nan nan nan nan nan nan nan nan nan nan nan
307 317 326 332 332 329 328 329 328 328 327 326 322 320 320 321 309 302 305 309 301 295 286 281 279 288 285 nan 262 245 241 246 244 239 240 245 252 257 262 267 269 265 262 nan nan nan nan nan nan nan nan nan nan nan nan nan nan nan nan nan nan nan nan nan nan nan nan nan nan nan nan nan nan nan nan nan nan nan nan nan nan nan nan nan nan
314 320 323 325 328 327 326 326 327 326 325 324 321 321 318 320 315 308 304 300 295 287 290 292 280 279 278 274 268 nan nan nan 240 242 245 246 247 250 259 265 270 268 266 nan nan nan nan nan nan nan nan nan nan nan nan nan nan nan nan nan nan nan nan nan nan nan nan nan nan nan nan nan nan nan nan nan nan nan nan nan nan nan nan nan nan
309 317 320 322 323 326 326 325 325 324 325 324 321 321 317 313 309 308 303 301 300 295 290 288 273 275 273 275 267 nan nan nan nan 243 247 248 247 247 254 259 258 254 nan nan nan nan nan nan nan nan nan nan nan nan nan nan nan nan nan nan nan nan nan nan nan nan nan nan nan nan nan nan nan nan nan nan nan nan nan nan nan nan nan nan nan
309 317 316 315 318 321 322 322 323 323 323 323 319 317 315 314 311 306 303 300 296 290 283 282 277 275 272 269 260 255 251 nan nan nan 250 249 248 249 252 256 256 256 nan 258 255 nan nan nan nan nan nan nan nan nan nan nan nan nan nan nan nan nan nan nan nan nan nan nan nan nan nan nan nan nan nan nan nan nan nan nan nan nan nan nan nan
313 315 315 321 324 324 323 323 322 321 319 318 316 312 314 312 310 305 300 296 293 288 280 278 279 270 266 265 nan nan nan nan 248 243 249 nan 245 nan 250 252 255 256 nan 255 256 nan nan nan nan nan nan nan nan nan nan nan nan nan nan nan nan nan nan nan nan nan nan nan nan nan nan nan nan nan nan nan nan nan nan nan nan nan nan nan nan
312 313 319 324 326 325 326 328 326 324 320 314 311 312 312 312 308 306 302 293 287 282 282 273 268 267 266 258 250 247 246 nan 247 243 nan nan nan 243 243 249 256 258 257 257 256 nan nan nan nan nan nan nan nan nan nan nan nan nan nan nan nan nan nan nan nan nan nan nan nan nan nan nan nan nan nan nan nan nan nan nan nan nan nan nan nan
315 317 322 326 325 326 327 328 327 324 321 320 319 314 311 309 309 306 301 295 290 286 281 280 278 268 270 263 261 252 247 241 241 nan nan nan nan nan 236 241 nan 253 259 258 256 nan nan nan nan nan nan nan nan nan nan nan nan nan nan nan nan nan nan nan nan nan nan 300 304 304 nan 299 nan nan nan nan nan nan nan nan nan nan nan nan nan
314 319 323 324 323 324 324 325 325 323 321 320 319 319 319 313 307 303 300 297 291 285 280 279 276 269 269 265 258 255 247 242 243 246 nan nan nan nan nan 238 237 nan 246 nan nan nan nan nan nan nan nan nan nan nan nan nan nan nan nan nan nan nan nan nan nan nan nan nan nan 303 303 304 301 296 nan nan nan nan nan nan nan nan nan nan nan
312 317 322 324 322 320 323 326 326 322 319 318 318 318 316 312 309 306 302 295 286 283 281 276 274 269 274 271 263 255 248 nan nan 249 241 nan nan nan nan 246 243 nan nan nan nan nan nan nan nan nan nan nan nan nan nan nan nan nan nan nan nan nan nan nan nan nan nan nan 290 304 304 nan 305 300 nan nan nan nan nan nan nan nan nan nan nan
311 315 319 321 321 320 324 328 324 321 319 317 318 317 314 312 309 308 305 297 286 284 280 276 271 263 268 271 270 266 nan 248 nan nan 249 244 nan nan nan nan 239 nan nan 249 nan nan nan nan nan nan nan nan nan nan nan nan nan nan nan nan nan nan nan nan nan nan nan nan nan nan nan 307 306 nan nan nan nan nan nan nan nan nan nan nan nan
313 316 320 321 321 323 326 326 325 321 321 318 318 316 313 310 307 304 298 289 280 276 273 271 268 263 269 269 267 264 257 243 237 244 248 241 241 237 nan nan nan nan nan nan nan nan 249 249 nan nan nan nan nan nan nan nan nan nan nan nan nan nan nan nan nan nan nan nan nan nan nan 309 304 303 302 nan nan nan nan nan nan nan nan nan nan
315 318 322 325 324 326 329 328 326 nan nan 320 319 316 313 309 307 304 300 293 283 279 269 259 258 263 265 267 268 267 257 242 234 236 239 234 230 234 nan nan nan nan nan nan nan nan nan 254 251 251 nan nan nan nan nan nan nan nan nan nan nan nan nan nan nan nan nan nan nan nan nan nan nan nan nan nan nan nan nan nan nan nan nan nan nan
315 319 324 325 325 328 328 328 328 327 326 323 320 316 311 307 303 299 297 288 277 277 272 267 262 263 265 267 272 277 260 241 237 237 237 236 231 nan nan nan nan nan nan nan 241 241 nan nan 251 252 nan 258 nan nan nan 265 265 nan nan nan nan nan nan nan nan nan nan nan nan nan nan nan nan nan nan nan nan nan nan nan nan nan nan nan nan
317 320 321 325 326 326 nan nan nan 331 328 nan nan nan nan nan 308 300 291 281 274 275 273 273 273 274 275 274 274 nan 254 236 239 240 236 232 232 nan nan nan nan nan nan nan 238 nan nan 243 252 nan 256 257 258 260 261 262 267 277 279 nan nan nan nan nan nan nan nan nan nan nan nan nan nan nan nan nan nan nan nan nan nan nan nan nan nan
314 317 322 324 nan nan nan nan nan nan nan nan nan nan nan nan nan 303 294 281 276 277 271 268 266 nan 277 279 276 275 251 231 235 236 231 227 228 231 232 237 nan nan nan nan nan nan 244 245 nan nan 255 255 255 258 259 265 262 275 278 264 265 nan nan nan nan nan nan nan nan nan nan nan nan nan nan nan nan nan nan nan nan nan nan nan nan
nan nan nan nan nan nan nan nan nan nan nan nan nan nan nan nan nan 305 297 285 275 271 267 266 264 nan 277 285 285 273 240 225 230 230 225 224 226 231 235 237 nan nan nan nan nan nan 245 nan 248 nan nan 251 253 255 258 258 262 266 262 264 266 nan nan nan nan nan nan nan nan nan nan nan nan nan nan nan nan nan nan nan nan nan nan nan nan
nan nan nan nan nan nan nan nan nan nan nan nan nan nan nan nan 318 312 304 290 277 267 261 263 265 268 273 nan 284 270 233 223 229 231 226 228 229 231 235 233 nan nan nan nan nan nan nan nan nan nan nan 253 253 255 257 258 263 268 261 264 265 nan nan nan nan nan nan nan nan nan nan nan nan nan nan nan nan nan nan nan nan nan nan nan nan
nan nan nan nan nan 329 nan nan nan nan nan nan nan nan nan nan 317 306 297 289 277 260 257 270 267 267 280 288 286 277 243 227 228 233 232 233 233 235 234 238 234 nan nan nan nan nan nan nan nan nan nan 256 256 255 255 255 261 264 261 262 264 nan nan nan nan nan nan nan nan nan nan nan nan nan nan nan nan nan nan nan nan nan nan nan nan
nan nan 316 322 nan nan nan nan 333 338 341 341 341 338 333 nan 322 317 313 299 283 263 250 264 268 273 288 292 289 283 261 239 230 232 235 236 236 236 238 241 242 nan nan nan nan nan nan nan nan 253 259 259 258 258 nan nan 255 264 257 260 261 267 264 nan nan nan nan nan nan nan nan nan nan nan nan nan nan nan nan nan nan nan nan nan nan
nan nan nan nan nan nan nan nan 334 339 342 343 344 340 335 332 325 323 324 308 291 264 255 251 262 266 275 285 291 285 272 261 242 233 234 237 238 239 239 242 244 242 nan nan 242 nan nan nan nan nan 257 258 256 258 nan nan nan nan 253 256 259 261 260 260 nan nan nan nan nan nan nan nan nan nan nan nan nan nan nan nan nan nan nan nan nan
nan nan nan nan nan nan nan nan nan nan nan 346 347 342 336 333 329 323 327 319 297 283 273 266 262 261 264 275 nan 283 279 272 259 247 242 242 243 243 244 246 246 245 244 240 236 237 242 nan nan nan 252 255 253 nan nan nan nan nan nan 254 255 258 260 260 nan nan nan nan nan nan nan 281 283 nan nan nan nan nan nan nan nan nan nan nan nan
nan nan nan nan nan nan nan nan nan nan 341 344 344 341 336 333 329 325 335 334 317 300 289 283 274 263 274 282 287 285 273 265 261 257 253 250 245 245 245 247 249 249 249 247 244 242 248 nan nan nan nan nan nan nan nan nan nan nan nan nan 258 256 254 256 nan nan nan nan nan nan nan nan 286 285 nan nan nan nan nan nan nan nan nan nan nan
nan nan nan nan nan nan nan nan nan nan 336 340 341 339 334 325 313 299 299 310 312 301 287 282 nan 273 273 nan nan 272 269 262 256 256 257 254 249 245 247 249 251 251 251 250 248 247 247 252 nan 252 254 nan nan nan nan nan 254 nan nan nan nan 255 254 nan nan nan nan nan nan nan nan 285 285 284 nan nan nan nan nan nan nan nan nan nan nan
nan nan nan nan nan nan nan nan nan 310 317 328 331 331 328 315 295 286 288 294 298 296 nan nan 275 279 272 268 263 258 260 260 257 257 259 262 258 256 257 256 255 252 248 250 253 255 257 256 249 248 254 nan nan nan nan nan 252 nan nan nan nan nan nan nan nan nan nan nan nan nan 284 286 285 nan nan nan nan nan nan nan nan nan nan nan nan
nan nan nan nan nan nan nan nan nan nan nan 320 320 nan nan nan nan nan 289 288 289 nan nan 272 271 265 260 260 263 267 266 265 261 257 259 260 256 255 255 255 253 251 250 251 253 255 258 254 252 nan nan 256 nan nan nan 255 254 nan nan nan nan nan nan nan nan nan nan nan nan nan 275 279 nan nan nan nan nan nan nan nan nan nan nan nan nan
nan nan nan nan nan nan nan nan nan nan nan 314 318 nan nan nan nan nan nan nan nan nan 274 266 265 262 252 255 263 264 259 254 253 257 255 251 252 253 254 257 255 255 255 255 256 259 259 258 251 250 nan nan nan nan nan 255 nan nan nan nan nan nan nan nan nan nan nan nan nan nan nan nan nan nan nan nan nan nan nan nan nan nan nan nan nan
nan nan nan nan nan nan nan nan nan nan 309 312 nan 315 nan 322 nan nan nan nan nan 273 265 258 256 259 263 258 251 249 253 256 255 255 255 253 249 252 254 257 257 259 260 259 260 263 262 261 259 255 253 253 nan nan nan nan nan nan nan nan nan nan nan nan nan nan nan nan nan nan nan nan nan nan nan nan nan nan nan nan nan nan nan nan nan
nan nan nan nan nan nan nan nan nan nan nan 308 318 nan 321 nan nan nan nan nan nan 266 265 266 264 263 262 258 264 266 258 257 256 249 255 257 256 256 255 257 260 265 265 265 263 263 263 262 256 251 254 253 nan nan nan nan nan nan nan nan nan nan nan nan nan nan nan nan nan nan nan nan nan nan nan nan nan nan nan nan nan nan nan nan nan
nan nan nan nan nan nan nan nan nan nan 291 nan nan 304 318 nan nan nan nan nan nan nan 257 256 256 257 258 259 257 264 264 265 269 265 261 264 262 259 259 263 265 264 266 266 266 265 265 265 263 261 260 nan nan nan nan nan nan nan nan nan nan nan nan nan nan nan nan nan nan nan nan nan nan nan nan nan nan nan nan nan nan nan nan nan nan
nan nan nan nan nan nan nan nan nan 285 289 289 264 277 275 nan nan nan nan nan nan 262 257 nan 251 251 256 253 248 245 243 241 250 257 265 263 264 262 266 267 265 265 266 266 266 266 266 266 263 262 262 nan nan nan nan nan nan nan nan nan nan nan nan nan nan nan nan nan nan nan nan nan nan nan nan nan nan nan nan nan nan nan nan nan nan
nan nan nan nan nan nan nan nan 269 274 279 262 nan nan nan nan nan nan nan nan 275 268 261 255 251 249 251 252 249 245 240 239 248 256 261 265 257 257 256 256 254 249 252 263 267 265 262 260 259 261 263 261 nan nan nan nan nan nan nan nan nan nan nan nan nan nan nan nan nan nan nan nan nan nan nan nan nan nan nan nan nan nan nan nan nan
nan nan nan nan nan nan nan 268 263 nan nan nan nan nan nan nan nan nan nan nan nan nan nan nan nan 251 nan nan nan 247 242 233 247 254 260 256 256 259 256 251 245 243 240 238 244 256 258 261 257 255 252 255 nan nan nan nan nan nan nan nan nan nan nan nan nan nan nan nan nan nan nan nan nan nan nan nan nan nan nan nan nan nan nan nan nan
nan nan nan nan nan nan nan nan nan nan nan nan nan nan nan nan nan nan nan nan nan nan nan nan nan nan nan nan nan nan 243 241 245 256 257 257 255 254 252 249 247 242 238 234 233 249 257 256 254 255 245 nan nan nan nan nan nan nan nan nan nan nan nan nan nan nan nan nan nan nan nan nan nan nan nan nan nan nan nan nan nan nan nan nan nan
nan nan nan nan nan nan nan nan nan nan nan nan nan nan nan nan nan nan nan nan nan nan nan nan nan nan nan nan nan nan 247 246 245 250 256 257 257 255 252 251 251 247 242 236 233 237 243 248 251 249 243 239 241 nan nan nan nan nan nan nan nan nan nan nan nan nan nan nan nan nan nan nan nan nan nan nan nan nan nan nan nan nan nan nan nan
nan nan nan nan nan nan nan nan nan nan nan nan nan nan nan nan nan nan nan nan nan nan nan nan nan nan nan nan nan nan nan nan 241 246 251 256 255 256 256 255 254 250 245 241 242 244 245 244 242 240 238 239 238 nan nan nan nan nan nan nan nan nan nan nan nan nan nan nan nan nan nan nan nan nan nan nan nan nan nan nan nan nan nan nan nan
nan nan nan nan nan nan nan nan nan nan nan nan nan nan nan nan nan nan nan nan nan nan nan nan nan nan nan nan nan nan nan nan nan nan nan nan nan nan 253 252 252 nan nan nan nan nan nan nan nan nan nan nan nan nan nan nan nan nan nan nan nan nan nan nan nan nan nan nan nan nan nan nan nan nan nan nan nan nan nan nan nan nan nan nan nan
nan nan nan nan nan nan nan nan nan nan nan nan nan nan nan nan nan nan nan nan nan nan nan nan nan nan nan nan nan nan nan nan nan nan nan nan nan nan nan nan nan nan nan nan nan nan nan nan nan nan nan nan nan nan nan nan nan nan nan nan nan nan nan nan nan nan nan nan nan nan nan nan nan nan nan nan nan nan nan nan nan nan nan nan nan
nan nan nan nan nan nan nan nan nan nan nan nan nan nan nan nan nan nan nan nan nan nan nan nan nan nan nan nan nan nan nan nan nan nan nan nan nan nan nan nan nan nan nan nan nan nan nan nan nan nan nan nan nan nan nan nan nan nan nan nan nan nan nan nan nan nan nan nan nan nan nan nan nan nan nan nan nan nan nan nan nan nan nan nan nan